Regional Weather Roundup
Issued by NWS

Home | Current Version | Previous Version | Text Only | Print | Product List | Glossary Off
Versions: 1 2 3 4 5 6 7 8 9 10 11 12 13 14 15 16 17 18 19 20 21 22 23 24 25 26 27 28 29 30 31 32 33 34 35 36 37 38 39 40 41 42 43 44 45 46 47 48 49 50

000
ASUS45 KTFX 272110
RWRMT
MONTANA REGIONAL WEATHER ROUNDUP
NATIONAL WEATHER SERVICE GREAT FALLS MT
300 PM MDT SAT MAY 27 2017

NOTE: "FAIR" INDICATES FEW OR NO CLOUDS BELOW 12000 FEET WITH NO
SIGNIFICANT WEATHER AND/OR OBSTRUCTIONS TO VISIBILITY.

MTZ001>007-043-272200-
WEST OF THE DIVIDE

CITY           SKY/WX    TMP DP  RH WIND       PRES   REMARKS
KALISPELL      SUNNY     73  44  35 VRB7      30.12F
MISSOULA       MOSUNNY   74  38  27 S8        30.16S
BUTTE          CLOUDY    65  31  28 VRB6      30.23S
MULLAN PASS    SUNNY     60  33  36 MISG      30.28R
ANACONDA         N/A     64  30  27 CALM      30.20S
DEER LODGE       N/A     68  36  30 NW15      30.21S
EUREKA           N/A     77  37  24 CALM      30.09F
HAMILTON         N/A     72  34  25 E6        30.17F
PLAINS           N/A     77  44  30 SE3       30.12F
RONAN            N/A     72  40  31 SW3       30.19S
$$

MTZ008-052>055-272200-
SOUTHWEST MONTANA

CITY           SKY/WX    TMP DP  RH WIND       PRES   REMARKS
BOZEMAN        MOSUNNY   68  37  32 VRB5      30.17S
DILLON         PTSUNNY   66  34  30 CALM      30.21R
ENNIS          CLOUDY    63  32  31 W8G15     30.26S
THREE FORKS      N/A     69  33  26 S6        30.14S
TWIN BRIDGES     N/A     67  33  28 S2        30.17R
$$

MTZ009-010-012-014-046-048-049-054-272200-
EAST SLOPES AND CENTRAL MONTANA

CITY           SKY/WX    TMP DP  RH WIND       PRES   REMARKS
CUT BANK       SUNNY     74  37  26 NW13G22   30.08S
GREAT FALLS    MOSUNNY   73  33  23 W9G21     30.09S
MALMSTROM AFB  MOSUNNY   72  33  24 NW10      30.09S
HELENA         PTSUNNY   73  33  23 N7        30.14R
CHOTEAU          N/A     73  34  23 W10G17    30.13R
CONRAD           N/A     74  39  28 SW17      30.10S
$$

MTZ011-013-016-021-045-047-050-051-272200-
NORTH CENTRAL MONTANA

CITY           SKY/WX    TMP DP  RH WIND       PRES   REMARKS
HAVRE          MOSUNNY   80  31  16 NW15G26   30.00R
LEWISTOWN      PTSUNNY   69  37  30 NW18G26   30.09R
N BAR RANCH      N/A     68  36  30 NW18G30   30.11S
CHINOOK          N/A     79  28  15 NW20G28   29.97R
FORT BENTON      N/A     79  36  21 CALM      30.03S
$$

MTZ017>020-022>027-061-062-272200-
NORTHEAST MONTANA

CITY           SKY/WX    TMP DP  RH WIND       PRES   REMARKS
GLASGOW        CLOUDY    76  33  21 NW24G33   29.91S
JORDAN           N/A     79  29  16 NW21G29   29.94S
SIDNEY         CLOUDY    73  39  29 N28G39    29.87R
WOLF POINT     LGT RAIN  70  39  32 W23G43    29.90R
MALTA          PTSUNNY   75  32  20 NW14G24   29.94R
PLENTYWOOD       N/A     72  34  25 NW31G46   29.80S
POPLAR           N/A     73  37  27 W20G28    29.87F
SCOBEY           N/A     72  36  26 NW23      29.89S
$$

MTZ028>42-056>058-272200-
SOUTHCENTRAL AND SOUTHEAST MONTANA

CITY           SKY/WX    TMP DP  RH WIND       PRES   REMARKS
BAKER          PTSUNNY   69  34  27 W18G30    29.93F
BILLINGS       PTSUNNY   68  38  33 W8        30.09R
LIVINGSTON     CLOUDY    68  39  34 W16       30.16R
MILES CITY     CLOUDY    73  33  23 NW20G28   29.94F
BIG TIMBER     MOSUNNY   68  36  30 W23G29    30.16S
EKALAKA          N/A     66  34  30 W15       29.96F
FORSYTH          N/A     70  37  30 SW10G21   29.98S
LAUREL           N/A     68  35  29 W13       30.08S
ROUNDUP          N/A     73  32  22 W20       29.96S
$$

REGIONAL REPORTS...DAKOTAS

CITY           SKY/WX    TMP DP  RH WIND       PRES   REMARKS
WILLISTON      CLOUDY    74  39  28 NW26G44   29.83R
MINOT          LGT RAIN  55  49  80 NW32G51   29.80R
DICKINSON      CLOUDY    73  36  25 NW18G33   29.83F
BEACH            N/A     73  34  23 NW23G35   29.91F
CROSBY           N/A     59  52  77 VRB5      29.83F
TIOGA          LGT RAIN  52  52 100 N21G35    29.89R
WATFORD CITY     N/A     68  36  30 NW22G33   29.83R
BISMARCK       PTSUNNY   75  37  25 NW13G22   29.81F
GRAND FORKS    CLOUDY    75  40  28 W16       29.72F
FARGO          MOSUNNY   78  37  22 W18       29.76F
BUFFALO SD       N/A     72  36  26 W25G38    29.88F
RAPID CITY     SUNNY     68  33  27 N12       30.00S
$$

REGIONAL REPORTS...WYOMING/IDAHO/WASHINGTON

CITY           SKY/WX    TMP DP  RH WIND       PRES   REMARKS
GILLETTE       CLOUDY    63  37  38 NW10      30.09R
SHERIDAN       SUNNY     69  36  29 NW16G24   30.09F
BUFFALO WY     MOSUNNY   66  32  28 N21G26    30.13S
CODY           CLOUDY    66  30  26 VRB6      30.18S
YELLOWSTONE LA   N/A     45  34  65 VRB5      30.32R
IDAHO FALLS    SUNNY     64  40  41 VRB5      30.25S
SALMON         MOSUNNY   70  32  24 NE8       30.17R
BOISE          SUNNY     75  37  25 S6        30.17S
SPOKANE        MOSUNNY   76  41  28 S8        30.15S
$$

REGIONAL REPORTS...ALBERTA

CITY           SKY/WX    TMP DP  RH WIND       PRES   REMARKS
EDMONTON       PTSUNNY   73  41  31 N10G18    29.96R
CALGARY        MOSUNNY   75  41  29 N15       30.04S
LETHBRIDGE     PTSUNNY   77  41  27 W13G20    30.03R
MEDICINE HAT   PTSUNNY   77  39  25 NW14G26   29.95S
WATERTON GATE    N/A     72  36  26 SW18G28     N/A
MILK RIVER       N/A     73  41  31 W14G21      N/A
ONEFOUR          N/A     73  34  23 NW15G23     N/A
$$

REGIONAL REPORTS...SASKATCHEWAN

CITY           SKY/WX    TMP DP  RH WIND       PRES   REMARKS
SWIFT CURRENT  PTSUNNY   73  36  25 NW29G37   29.88F
REGINA         MOSUNNY   70  30  23 N35G43    29.80R
SASKATOON      MOSUNNY   72  32  23 N17G30    29.84R
CYPRESS HILLS    N/A     66  30  26 W8          N/A
VAL MARIE        N/A     75  32  20 NW25G38     N/A
ROCKGLEN         N/A     68  36  30 NW17G26     N/A
ASSINIBOIA       N/A     77  36  22 N8G17       N/A
$$



USA.gov is the U.S. government's official web portal to all federal, state and local government web resources and services.